Hanscom AFB, MA

8:58 PM EST on February 20, 2017 (GMT -0500)
Hanscom

Weather History for KBED - March, 2013

Change the Weather History Date:

Sunday, March 17, 2013

  Actual Average Record
Temperature  
Mean Temperature 28 °F -  
Max Temperature 37 °F 47 °F 73 °F (1990)
Min Temperature 19 °F 26 °F 5 °F (1961)
Degree Days  
Heating Degree Days 37    
Moisture  
Dew Point 8 °F    
Average Humidity 45    
Maximum Humidity 81    
Minimum Humidity 22    
Precipitation  
Precipitation 0.00 in - - ()
Sea Level Pressure  
Sea Level Pressure 30.10 in    
Wind  
Wind Speed 6 mph (NW)    
Max Wind Speed 21 mph    
Max Gust Speed 29 mph    
Visibility 10 miles    
Events      
Averages and records for this station are not official NWS values.
T = Trace of Precipitation, MM = Missing Value Source: NWS Daily Summary

Daily Weather History Graph

Daily Weather History Graph

Search for Another Location

Airport or City:

Trip Planner

Search our weather history database for the weather conditions in past years. The results will help you decide how hot, cold, wet, or windy it might be!

Date:

Astronomy

Mar. 17, 2013 Rise Set
Actual Time 6:53 AM EDT 6:54 PM EDT
Civil Twilight 6:25 AM EDT 7:22 PM EDT
Nautical Twilight 5:52 AM EDT 7:55 PM EDT
Astronomical Twilight 5:19 AM EDT 8:28 PM EDT
Moon 9:56 AM EDT (3/17) 12:05 AM EDT (3/17)
Length of Visible Light 12h 56m
Length of Day
12h 00m
Waxing Crescent, 31% of the Moon is Illuminated
Mar 17
Waxing Crescent
Mar 19
First Quarter
Mar 27
Full
Apr 3
Last Quarter
Apr 10
New

Hourly Weather History & Observations

Time (EDT) Temp. Windchill Dew Point Humidity Pressure Visibility Wind Dir Wind Speed Gust Speed Precip Events Conditions
12:56 AM 28.0 °F 24.2 °F 9.0 °F 45% 29.93 in 10.0 mi North 3.5 mph - N/A   Clear
1:56 AM 24.1 °F - 12.0 °F 60% 29.94 in 10.0 mi Calm Calm - N/A   Clear
2:56 AM 24.1 °F - 15.1 °F 69% 29.94 in 10.0 mi Calm Calm - N/A   Clear
3:56 AM 21.9 °F - 15.1 °F 75% 29.95 in 10.0 mi Calm Calm - N/A   Clear
4:56 AM 21.0 °F - 14.0 °F 74% 29.96 in 10.0 mi Calm Calm - N/A   Clear
5:56 AM 19.9 °F - 15.1 °F 81% 29.98 in 10.0 mi Calm Calm - N/A   Clear
6:56 AM 19.0 °F 12.3 °F 14.0 °F 81% 30.00 in 10.0 mi SW 4.6 mph - N/A   Clear
7:56 AM 24.1 °F 18.2 °F 16.0 °F 71% 30.04 in 10.0 mi WNW 4.6 mph - N/A   Clear
8:56 AM 28.0 °F 18.1 °F 14.0 °F 56% 30.07 in 10.0 mi NW 11.5 mph - N/A   Clear
9:56 AM 30.9 °F 19.4 °F 8.1 °F 38% 30.06 in 10.0 mi NW 17.3 mph 23.0 mph N/A   Clear
10:56 AM 33.1 °F 23.0 °F 8.1 °F 35% 30.07 in 10.0 mi WNW 15.0 mph 20.7 mph N/A   Clear
11:56 AM 37.0 °F 27.7 °F 8.1 °F 30% 30.08 in 10.0 mi NNW 16.1 mph 26.5 mph N/A   Scattered Clouds
12:56 PM 36.0 °F 26.7 °F 3.9 °F 26% 30.08 in 10.0 mi NW 15.0 mph 26.5 mph N/A   Scattered Clouds
1:56 PM 37.0 °F 26.4 °F 1.0 °F 22% 30.08 in 10.0 mi NNW 20.7 mph 28.8 mph N/A   Partly Cloudy
2:56 PM 37.0 °F 27.7 °F 1.9 °F 23% 30.09 in 10.0 mi WNW 16.1 mph 23.0 mph N/A   Partly Cloudy
3:56 PM 36.0 °F 26.3 °F 1.0 °F 23% 30.11 in 10.0 mi WNW 16.1 mph - N/A   Clear
4:56 PM 35.1 °F 27.9 °F 3.0 °F 26% 30.13 in 10.0 mi NNW 9.2 mph 21.9 mph N/A   Clear
5:56 PM 33.1 °F 23.9 °F 3.9 °F 29% 30.16 in 10.0 mi NNW 12.7 mph - N/A   Clear
6:56 PM 30.0 °F 23.2 °F 3.9 °F 33% 30.19 in 10.0 mi NNW 6.9 mph - N/A   Clear
7:56 PM 28.0 °F 24.2 °F 3.9 °F 36% 30.24 in 10.0 mi NNW 3.5 mph - N/A   Clear
8:56 PM 27.0 °F 18.0 °F 5.0 °F 39% 30.27 in 10.0 mi NNW 9.2 mph - N/A   Clear
9:56 PM 27.0 °F 19.5 °F 1.0 °F 33% 30.30 in 10.0 mi NNW 6.9 mph - N/A   Clear
10:56 PM 26.1 °F 16.8 °F 1.9 °F 35% 30.34 in 10.0 mi North 9.2 mph - N/A   Clear
11:56 PM 24.1 °F 15.2 °F 1.9 °F 38% 30.36 in 10.0 mi North 8.1 mph - N/A   Clear